Weather History for Camdenton, MO

Change the Weather History Date:

Tuesday, April 9, 2013

  Actual Average (KAIZ) Record (KAIZ)
Temperature  
Mean Temperature 66 °F -  
Max Temperature 73 °F 63 °F 89 °F (2011)
Min Temperature 60 °F 42 °F 19 °F (2007)
Cooling Degree Days 2    
Growing Degree Days 16 (Base 50)    
Moisture  
Dew Point 57 °F    
Average Humidity 69    
Maximum Humidity 82    
Minimum Humidity 57    
Precipitation  
Precipitation 0.00 in - - ()
Sea Level Pressure  
Sea Level Pressure 29.80 in    
Wind  
Wind Speed 11 mph (SE)    
Max Wind Speed 18 mph    
Max Gust Speed 23 mph    
Visibility 10 miles    
Events      
Averages and records for this station are not official NWS values.
T = Trace of Precipitation, MM = Missing Value Source: NWS Daily Summary

Daily Weather History Graph

Daily Weather History Graph

Search for Another Location

Airport:

Trip Planner

Search our weather history database for the weather conditions in past years. The results will help you decide how hot, cold, wet, or windy it might be!

Date:

Astronomy

Apr. 09, 2013 Rise Set
Actual Time 6:43 AM CDT 7:41 PM CDT
Civil Twilight 6:16 AM CDT 8:08 PM CDT
Nautical Twilight 5:44 AM CDT 8:40 PM CDT
Astronomical Twilight 5:11 AM CDT 9:13 PM CDT
Moon 6:06 AM CDT (4/9) 7:17 PM CDT (4/9)
Length of Visible Light 13h 51m
Length of Day
12h 57m
Waning Crescent, 1% of the Moon is Illuminated
Apr 9
Waning Crescent
Apr 10
New
Apr 18
First Quarter
Apr 25
Full
May 2
Last Quarter

Hourly Weather History & Observations

Time (CDT) Temp. Dew Point Humidity Pressure Visibility Wind Dir Wind Speed Gust Speed Precip Events Conditions
12:15 AM 62.6 °F 55.4 °F 77% 29.82 in 10.0 mi ESE 6.9 mph - N/A   Scattered Clouds
12:35 AM 62.6 °F 55.4 °F 77% 29.82 in 10.0 mi East 8.1 mph - N/A   Clear
12:55 AM 62.6 °F 55.4 °F 77% 29.82 in 10.0 mi ESE 8.1 mph - N/A   Clear
1:15 AM 62.6 °F 57.2 °F 82% 29.81 in 10.0 mi East 8.1 mph - N/A   Scattered Clouds
1:35 AM 62.6 °F 55.4 °F 77% 29.80 in 10.0 mi ESE 9.2 mph - N/A   Mostly Cloudy
1:55 AM 60.8 °F 55.4 °F 82% 29.78 in 10.0 mi ESE 12.7 mph - N/A   Mostly Cloudy
2:15 AM 62.6 °F 55.4 °F 77% 29.77 in 10.0 mi ESE 10.4 mph 16.1 mph N/A   Mostly Cloudy
2:35 AM 62.6 °F 55.4 °F 77% 29.77 in 10.0 mi ESE 10.4 mph - N/A   Mostly Cloudy
2:55 AM 62.6 °F 55.4 °F 77% 29.77 in 10.0 mi ESE 9.2 mph - N/A   Overcast
3:15 AM 62.6 °F 55.4 °F 77% 29.77 in 10.0 mi SE 11.5 mph - N/A   Overcast
3:35 AM 64.4 °F 55.4 °F 73% 29.76 in 10.0 mi SE 11.5 mph - N/A   Overcast
3:55 AM 64.4 °F 55.4 °F 73% 29.76 in 10.0 mi SE 12.7 mph - N/A   Overcast
4:15 AM 64.4 °F 55.4 °F 73% 29.76 in 10.0 mi SE 13.8 mph 19.6 mph N/A   Overcast
4:35 AM 64.4 °F 55.4 °F 73% 29.76 in 10.0 mi SE 13.8 mph 18.4 mph N/A   Overcast
4:55 AM 64.4 °F 55.4 °F 73% 29.77 in 10.0 mi SE 11.5 mph - N/A   Overcast
5:15 AM 64.4 °F 55.4 °F 73% 29.77 in 10.0 mi SE 11.5 mph - N/A   Overcast
5:35 AM 64.4 °F 55.4 °F 73% 29.77 in 10.0 mi SE 13.8 mph - N/A   Overcast
5:55 AM 64.4 °F 55.4 °F 73% 29.77 in 10.0 mi SE 13.8 mph - N/A   Overcast
6:15 AM 64.4 °F 55.4 °F 73% 29.78 in 10.0 mi SE 11.5 mph 16.1 mph N/A   Overcast
6:35 AM 62.6 °F 55.4 °F 77% 29.77 in 10.0 mi SE 13.8 mph - N/A   Overcast
6:55 AM 62.6 °F 53.6 °F 72% 29.79 in 10.0 mi SE 10.4 mph 17.3 mph N/A   Overcast
7:15 AM 64.4 °F 53.6 °F 68% 29.80 in 10.0 mi SE 12.7 mph - N/A   Overcast
7:35 AM 64.4 °F 53.6 °F 68% 29.81 in 10.0 mi SE 13.8 mph - N/A   Overcast
7:55 AM 64.4 °F 53.6 °F 68% 29.82 in 10.0 mi SE 12.7 mph 19.6 mph N/A   Overcast
8:15 AM 62.6 °F 53.6 °F 72% 29.83 in 10.0 mi SE 16.1 mph 19.6 mph N/A   Overcast
8:35 AM 62.6 °F 53.6 °F 72% 29.83 in 10.0 mi SE 12.7 mph 19.6 mph N/A   Overcast
8:55 AM 62.6 °F 53.6 °F 72% 29.83 in 10.0 mi ESE 10.4 mph 17.3 mph N/A   Overcast
9:15 AM 62.6 °F 53.6 °F 72% 29.82 in 10.0 mi SE 13.8 mph - N/A   Overcast
9:35 AM 62.6 °F 55.4 °F 77% 29.83 in 10.0 mi SE 11.5 mph - N/A   Overcast
9:55 AM 64.4 °F 55.4 °F 73% 29.84 in 10.0 mi SE 11.5 mph - N/A   Overcast
10:15 AM 64.4 °F 55.4 °F 73% 29.84 in 10.0 mi SE 13.8 mph 19.6 mph N/A   Overcast
10:35 AM 64.4 °F 55.4 °F 73% 29.84 in 10.0 mi SE 15.0 mph 20.7 mph N/A   Overcast
10:55 AM 66.2 °F 55.4 °F 68% 29.85 in 10.0 mi SE 18.4 mph - N/A   Overcast
11:15 AM 68.0 °F 57.2 °F 68% 29.85 in 10.0 mi SE 13.8 mph 18.4 mph N/A   Overcast
11:35 AM 68.0 °F 57.2 °F 68% 29.86 in 10.0 mi SE 13.8 mph 17.3 mph N/A   Overcast
11:55 AM 68.0 °F 59.0 °F 73% 29.86 in 10.0 mi ESE 16.1 mph 20.7 mph N/A   Overcast
12:15 PM 69.8 °F 59.0 °F 68% 29.85 in 10.0 mi ESE 12.7 mph 23.0 mph N/A   Overcast
12:35 PM 68.0 °F 59.0 °F 73% 29.85 in 10.0 mi SE 17.3 mph 21.9 mph N/A   Overcast
12:55 PM 68.0 °F 59.0 °F 73% 29.84 in 10.0 mi SE 17.3 mph 23.0 mph N/A   Overcast
1:15 PM 69.8 °F 59.0 °F 68% 29.85 in 10.0 mi SE 11.5 mph - N/A   Overcast
1:35 PM 68.0 °F 59.0 °F 73% 29.85 in 10.0 mi SE 12.7 mph - N/A   Overcast
1:55 PM 68.0 °F 59.0 °F 73% 29.85 in 10.0 mi SE 11.5 mph - N/A   Overcast
2:15 PM 68.0 °F 59.0 °F 73% 29.84 in 10.0 mi SE 12.7 mph - N/A   Overcast
2:55 PM 69.8 °F 59.0 °F 68% 29.83 in 10.0 mi ESE 12.7 mph - N/A   Overcast
3:15 PM 69.8 °F 59.0 °F 68% 29.83 in 10.0 mi SE 12.7 mph 18.4 mph N/A   Overcast
3:35 PM 69.8 °F 59.0 °F 68% 29.83 in 10.0 mi SE 13.8 mph - N/A   Overcast
3:55 PM 71.6 °F 59.0 °F 64% 29.82 in 10.0 mi ESE 12.7 mph - N/A   Overcast
4:15 PM 73.4 °F 59.0 °F 61% 29.81 in 10.0 mi SE 17.3 mph 21.9 mph N/A   Scattered Clouds
4:35 PM 71.6 °F 59.0 °F 64% 29.80 in 10.0 mi SE 12.7 mph 17.3 mph N/A   Mostly Cloudy
4:55 PM 73.4 °F 59.0 °F 61% 29.79 in 10.0 mi SE 12.7 mph 20.7 mph N/A   Overcast
5:15 PM 73.4 °F 59.0 °F 61% 29.79 in 10.0 mi SE 11.5 mph 17.3 mph N/A   Overcast
5:35 PM 73.4 °F 59.0 °F 61% 29.79 in 10.0 mi SE 12.7 mph 19.6 mph N/A   Overcast
5:55 PM 73.4 °F 59.0 °F 61% 29.79 in 10.0 mi SE 11.5 mph 17.3 mph N/A   Overcast
6:15 PM 73.4 °F 59.0 °F 61% 29.79 in 10.0 mi SE 12.7 mph 18.4 mph N/A   Overcast
6:35 PM 73.4 °F 59.0 °F 61% 29.79 in 10.0 mi SE 9.2 mph 16.1 mph N/A   Overcast
6:55 PM 71.6 °F 59.0 °F 64% 29.78 in 10.0 mi SE 8.1 mph - N/A   Overcast
7:15 PM 71.6 °F 59.0 °F 64% 29.79 in 10.0 mi ESE 5.8 mph - N/A   Overcast
7:35 PM 69.8 °F 59.0 °F 68% 29.78 in 10.0 mi ESE 3.5 mph - N/A   Mostly Cloudy
7:55 PM 69.8 °F 59.0 °F 68% 29.78 in 10.0 mi East 3.5 mph - N/A   Mostly Cloudy
8:15 PM 69.8 °F 59.0 °F 68% 29.78 in 10.0 mi East 3.5 mph - N/A   Overcast
8:35 PM 69.8 °F 59.0 °F 68% 29.80 in 10.0 mi East 4.6 mph - N/A   Overcast
8:55 PM 69.8 °F 59.0 °F 68% 29.80 in 10.0 mi ESE 4.6 mph - N/A   Overcast
9:15 PM 71.6 °F 57.2 °F 60% 29.80 in 10.0 mi SE 6.9 mph - N/A   Overcast
9:55 PM 71.6 °F 55.4 °F 57% 29.80 in 10.0 mi SE 9.2 mph - N/A   Overcast
10:15 PM 71.6 °F 55.4 °F 57% 29.80 in 10.0 mi SE 10.4 mph - N/A   Scattered Clouds
10:35 PM 71.6 °F 55.4 °F 57% 29.79 in 10.0 mi SE 11.5 mph - N/A   Scattered Clouds
10:55 PM 69.8 °F 55.4 °F 60% 29.77 in 10.0 mi ESE 11.5 mph - N/A   Scattered Clouds
11:15 PM 69.8 °F 55.4 °F 60% 29.77 in 10.0 mi ESE 10.4 mph 18.4 mph N/A   Clear
11:35 PM 69.8 °F 57.2 °F 64% 29.76 in 10.0 mi SE 11.5 mph - N/A   Clear
11:55 PM 69.8 °F 59.0 °F 68% 29.75 in 10.0 mi SE 12.7 mph - N/A   Clear